Regional Weather Roundup
Issued by NWS Little Rock, AR

Home | Current Version | Previous Version | Graphics & Text | Print | Product List | Glossary On
Versions: 1 2 3 4 5 6 7 8 9 10 11 12 13 14 15 16 17 18 19 20 21 22 23 24 25 26 27
000
ASUS44 KLZK 271205
RWRLZK

WEATHER ROUNDUP FOR ARKANSAS
NATIONAL WEATHER SERVICE LITTLE ROCK AR
700 AM CDT WED JUL 27 2016

NOTE: "FAIR" INDICATES FEW OR NO CLOUDS BELOW 12,000 FEET WITH NO
SIGNIFICANT WEATHER AND/OR OBSTRUCTIONS TO VISIBILITY.

ARZ001-003-010-029-271300-
NORTHWEST ARKANSAS

CITY           SKY/WX    TMP DP  RH WIND       PRES   REMARKS
FAYETTEVILLE   MOCLDY    71  71 100 E3        30.00S
6HR MIN TEMP:  69; 6HR MAX TEMP:  72;

FORT SMITH     CLOUDY    77  72  84 E7        29.96R
6HR MIN TEMP:  76; 6HR MAX TEMP:  78;

HARRISON       FOG       70  70 100 SE6       30.02S VSB<1/4
6HR MIN TEMP:  70; 6HR MAX TEMP:  73;

BENTONVILLE    MOCLDY    73  70  88 NW6       30.02R
6HR MIN TEMP:  72; 6HR MAX TEMP:  73;

ROGERS         CLOUDY    74  72  93 CALM      30.02R
6HR MIN TEMP:  72; 6HR MAX TEMP:  74;

SILOAM SPGS    CLOUDY    72  63  73 N6        30.02R
6HR MIN TEMP:  72; 6HR MAX TEMP:  72;

HIGHFILL       MOCLDY    72  72 100 NW7       30.01R
6HR MIN TEMP:  71; 6HR MAX TEMP:  74;

SPRINGDALE     MOCLDY    73  72  94 CALM      30.03R
$$

ARZ004-005-016-271300-
NORTH CENTRAL ARKANSAS

CITY           SKY/WX    TMP DP  RH WIND       PRES   REMARKS
BATESVILLE     CLEAR     73  72  94 CALM      29.98F
6HR MIN TEMP:  72; 6HR MAX TEMP:  75;

FLIPPIN        CLOUDY    73  70  88 CALM      29.98S VSB<1/4
6HR MIN TEMP:  72; 6HR MAX TEMP:  73;

MTN HOME       FOG       71  71 100 CALM      30.00S VSB 1/4
6HR MIN TEMP:  71; 6HR MAX TEMP:  73;

$$

ARZ040-041-271300-
WEST CENTRAL ARKANSAS

CITY           SKY/WX    TMP DP  RH WIND       PRES   REMARKS
MENA           CLEAR     72  72 100 CALM      29.99S
MOUNT IDA      PTCLDY    72  72 100 CALM      29.95S
6HR MIN TEMP:  72; 6HR MAX TEMP:  76;

$$

ARZ009-017-025-026-028-271300-
NORTHEAST ARKANSAS

CITY           SKY/WX    TMP DP  RH WIND       PRES   REMARKS
CORNING          N/A     73  73 100 N3        29.99R
JONESBORO      CLEAR     76  74  93 NE6       29.97R
6HR MIN TEMP:  75; 6HR MAX TEMP:  77;

NEWPORT        PTCLDY    75  75 100 N5        29.98S
6HR MIN TEMP:  74; 6HR MAX TEMP:  78;

WALNUT RIDGE   CLEAR     73  72  94 N5        29.96F
6HR MIN TEMP:  73; 6HR MAX TEMP:  75;

BLYTHEVILLE    CLEAR     76  74  93 E5        29.98R
6HR MIN TEMP:  75; 6HR MAX TEMP:  78;

$$

ARZ022-023-033-042-044-271300-
CENTRAL ARKANSAS

CITY           SKY/WX    TMP DP  RH WIND       PRES   REMARKS
LITTLE ROCK    CLOUDY    81  74  79 N6        29.95S HX  86
6HR MIN TEMP:  80; 6HR MAX TEMP:  84;

N LITTLE ROCK    N/A     77  73  90 N3        29.92S
6HR MIN TEMP:  76; 6HR MAX TEMP:  78;

JACKSONVILLE   CLOUDY    78  75  90 CALM      29.95R
6HR MIN TEMP:  76; 6HR MAX TEMP:  78;

SEARCY         CLOUDY    77  75  93 N3        29.97S
6HR MIN TEMP:  75; 6HR MAX TEMP:  78;

HOT SPRINGS    CLOUDY    77  73  87 CALM      29.96R
6HR MIN TEMP:  75; 6HR MAX TEMP:  80;

RUSSELLVILLE   CLOUDY    73  72  96 CALM      29.96S FOG
6HR MIN TEMP:  72; 6HR MAX TEMP:  76;

$$

ARZ036-271300-
EAST ARKANSAS

CITY           SKY/WX    TMP DP  RH WIND       PRES   REMARKS
WEST MEMPHIS   MOCLDY    77  75  93 S5        29.95R
6HR MIN TEMP:  74; 6HR MAX TEMP:  78;

$$

ARZ050-053-066-070-073-271300-
SOUTHWEST ARKANSAS

CITY           SKY/WX    TMP DP  RH WIND       PRES   REMARKS
CAMDEN         RAIN      73  72  94 NW7       29.95S
TEXARKANA      CLEAR     74  72  93 CALM      29.95R
6HR MIN TEMP:  73; 6HR MAX TEMP:  80;

EL DORADO      CLOUDY    74  73  97 CALM      29.96R
6HR MIN TEMP:  73; 6HR MAX TEMP:  76;

DE QUEEN       CLEAR     74  73  97 CALM      29.93S
6HR MIN TEMP:  74; 6HR MAX TEMP:  79;

$$

ARZ056-057-069-271300-
SOUTHEAST ARKANSAS

CITY           SKY/WX    TMP DP  RH WIND       PRES   REMARKS
PINE BLUFF     LGT RAIN  76  74  93 S5        29.95R
6HR MIN TEMP:  75; 6HR MAX TEMP:  78; 6HR PCP:  0.04;

STUTTGART      CLOUDY    79  72  78 N5        29.96R
6HR MIN TEMP:  77; 6HR MAX TEMP:  81;

MONTICELLO     CLOUDY    77  74  90 SE3       29.97R
6HR MIN TEMP:  76; 6HR MAX TEMP:  79; 6HR PCP:  0.35;


$$






USA.gov is the U.S. government's official web portal to all federal, state and local government web resources and services.